STARLINK-11630, 63111

Orbit data source: Space-Track

STARLINK-11630, 63111 is a payload satellite owned by SpaceX/Seattle (US) in LEO that was launched on Thu, 27 Feb 2025 UTC via an FALCON 9 launch vehicle from the Air Force Eastern Test Range (AFETR). Payload-class satellites include a variety of spacecraft equipped with specific instruments for various scientific and technological missions. These include communications satellites like Starlink; space stations such as the ISS; scientific satellites like the Hubble; Earth observation satellites from companies like Planet Labs, Umbra, and HawkEye 360; GPS; miniature CubeSats for education and research; and military/defense satellites.

Loading next visibility...
Identifier
63111, 2025-039H
Orbit
LEO
Country
Flag of USUS
Related business
Manufacturer
SpaceX/Seattle
Mission
Operational Commercial Communications
Bus & Motor
STARLINK V2MD, Unknown motor
Mass
960 kg wet, ~910 kg dry
Launch date (UTC)
2025-02-27 (1 year ago)
Launch vehicle
FALCON 9
Launch site
Air Force Eastern Test Range (AFETR)
Object type
Payload
Rocket body
Debris
Shape & HBR
Box + 2 Pan, 18.1 m
Radar Cross Section
36.964 m², Large (>1 m²)

Expand to show TLE details & history
Last TLE update: 14 hours ago

TLE from 14 hours ago
0 STARLINK-11630
1 63111U 25039H   26071.75073108  .00262731  00000-0  19818-2 0  9998
2 63111  42.9995 218.6834 0001519 290.6901  69.3803 15.70902537 60090
Epoch: 2026-03-12T18:01Z
TLE epoch observation values (Epoch: 2026-03-12T18:01:03.165Z)
Latitude
-0.00006°
Longitude
138.02402°
Altitude
355.727 km
Speed
7.698 km/s
True Right ascension
14h 34m 44s
True Declination
0° 00' 00"
Sunlit
Object was in full shadow at epoch
Visualization orbit readout
Latitude
Unknown
Longitude
Unknown
Altitude
Unknown
Speed
Unknown
Apparent Right ascension
Unknown
Apparent Declination
Unknown
Sunlit
N/A
Visualization observer readout
Local Sidereal Time
12:07:22
Azimuth
Unknown
Elevation
Unknown
Doppler factor
Unknown
Orbital elements
Apogee altitude
359.321 km
Perigee altitude
357.275 km
Semi-major axis
6,736.435 km
Eccentricity
0.00015
Inclination
42.9995°
RAAN
218.6834°
Arg. of periapsis
290.6901°
True anomaly
69.39659°
Mean anomaly
69.3803°
Eccentric anomaly
69.38845°
Mean motion
3.92553 °/min
Orbital period
91.71 mins
BSTAR
0.0019818
Loading maneuver chart data...
Computing Atmospheric mass density...
Loading historical data...
Loading historical data...
Loading historical data...
Loading historical data...
Loading historical data...
Loading historical data...
Loading historical data...

Documentation

Showing up to 5 results
|